Location: Invercargill
(46.4000°S, 168.3500°E)
Time: 18:38:33
(UTC+12:00)

Okean O Rocket - Pass Details

Date: 14 May 2021
Orbit: 622 x 645 km, 98.2° (Epoch: 14 June)

Event Time Altitude Azimuth Distance (km) Brightness Sun altitude
Exits shadow 20:43:32 27° 259° (W) 1,270 3.6 -34.1°
Drops below altitude 10° 20:46:44 10° 303° (WNW) 2,058 4.7 -34.6°
Sets 20:49:11 0° 314° (NW) 2,962 5.5 -35.0°
